Location: T. Spence Memorial Observatory
(32.7356°N, 82.2098°W)
Time: 19:58:05
(UTC-04:00)

Daily predictions for brighter satellites

Satellite Brightness Start Highest point End
(mag) Time Altitude Azimuth Time Altitude Azimuth Time Altitude Azimuth
ATLAS CENTAUR R/B 2.9 19:26:05 10° SSW 19:29:45 68° ESE 19:40:22 10° NE
SJ-6B 3.6 19:36:53 10° SE 19:40:23 31° ENE 19:43:58 10° N
GPS 2-04 Rocket1 3.3 19:38:18 10° SW 19:41:27 34° SSE 19:44:43 10° E
Cosmos 1371 Rocket 4.0 19:36:46 10° NNW 19:42:04 70° ENE 19:47:23 10° SSE
IDEFIX/ARIANE 42P 3.6 19:39:52 10° S 19:44:55 52° W 19:50:03 10° NNW
Cosmos 2333 Rocket 4.3 19:40:02 10° WSW 19:45:02 30° WNW 19:50:04 10° N
COSMO-SKYMED 1 3.1 19:42:27 10° N 19:46:46 65° WNW 19:51:02 10° SSW
Cosmos 192 4.3 19:43:51 10° S 19:48:44 65° ESE 19:53:39 10° NNE
NOAA 12 4.4 19:44:34 10° SE 19:49:30 44° ENE 19:54:29 10° N
Cosmos 1758 4.3 19:47:28 10° SSE 19:50:55 27° E 19:54:23 10° NNE
Aureole 2 Rocket 3.6 19:53:04 10° SSW 19:57:23 60° WNW 20:01:42 10° N
OAO 3 Rocket 3.3 19:53:42 10° W 19:58:26 69° N 20:02:48 12° ENE
ISS -2.1 19:55:44 10° S 19:58:27 25° SE 20:00:32 14° E
USA 215 3.3 19:52:15 10° NE 19:58:49 83° SE 20:05:21 10° SW
Cosmos 1484 Rocket 3.2 19:55:15 10° S 19:59:01 67° W 20:02:52 10° NNW
Cosmos 1624 Rocket 3.9 19:54:12 10° NNW 19:59:26 82° ENE 20:04:36 10° SSE
SAR-Lupe-1 4.0 19:56:29 10° SSE 19:59:59 61° ENE 20:03:30 10° N
SL-19 R/B 4.3 19:54:48 10° SSE 20:00:22 82° ENE 20:06:13 10° NNW
ASTRO E2 2.7 20:01:04 10° W 20:05:07 74° S 20:08:09 17° E
Cosmos 1766 Rocket 4.0 20:02:24 10° NNE 20:06:28 37° E 20:10:28 10° SSE
ALOS 3.5 20:04:00 13° ESE 20:06:49 21° ENE 20:10:15 10° NNE
Cosmos 2034 Rocket 4.1 20:02:16 10° SSE 20:08:19 56° E 20:14:28 10° NNE
Cosmos 1464 Rocket 4.0 20:03:54 10° S 20:10:09 81° E 20:16:22 10° N
ATLAS 5 CENTAUR R/B 2.1 20:07:30 10° SW 20:12:09 71° WNW 20:17:11 10° NNE
BREEZE-M TANK 2.9 20:03:34 10° NW 20:12:45 85° NE 20:15:14 17° ESE
Helios 1B rocket 2.4 20:10:20 10° NNE 20:14:24 60° ESE 20:18:27 10° S
Meteor 1-29 3.2 20:11:31 10° NNE 20:14:54 45° E 20:18:14 10° S
Atlas Centaur 2 3.5 20:08:23 10° W 20:16:46 57° SSW 20:23:25 15° SE
Cosmos 1076 Rocket 3.4 20:13:28 10° N 20:17:47 65° E 20:22:06 10° SSE
Cosmos-2242 3.0 20:15:02 10° S 20:19:17 56° E 20:23:34 10° NNE
Cosmos 1766 4.4 20:15:30 10° SSW 20:19:18 47° W 20:23:09 10° N
SeaSat 1 3.4 20:15:42 10° NE 20:19:42 25° ESE 20:23:41 10° SSE
CZ-4B DEB 4.4 20:23:55 19° NE 20:23:55 19° NE 20:25:35 10° NNE
SL-16 R/B 3.8 20:23:09 10° SW 20:28:20 36° WNW 20:33:34 10° N
FREGAT/IRIS 3.1 20:25:50 10° S 20:28:53 61° W 20:31:57 10° NNW
Cosmos 1452 Rocket 3.6 20:23:43 10° N 20:28:53 56° ENE 20:33:23 13° SSE
SEDSat Delta rocket 4.0 20:23:08 10° W 20:29:49 81° S 20:34:01 25° E
CZ-2D R/B 4.4 20:33:52 26° ENE 20:33:52 26° ENE 20:36:39 10° NNE
Cosmos 1842 Rocket 4.0 20:30:33 10° SSE 20:34:30 37° E 20:38:30 10° NNE
ATLAS CENTAUR R/B 3.2 20:32:00 10° NW 20:35:29 28° WSW 20:38:45 10° S
SL-8 R/B 3.9 20:33:55 10° WSW 20:38:41 71° NW 20:42:04 19° NE
Cosmos 1544 2.9 20:36:03 10° S 20:39:45 79° E 20:43:30 10° N
METEOR-M 4.2 20:34:26 10° S 20:39:47 80° WSW 20:45:10 10° NNW
Cosmos 1408 Rocket 3.6 20:35:53 10° N 20:40:15 76° W 20:44:32 10° S
Gbstr 26 Del rocket 3.1 20:39:46 10° SSW 20:43:57 59° SE 20:45:51 34° ENE
Cosmos 1953 3.0 20:40:57 10° SSW 20:44:51 54° W 20:48:46 10° N
H-2A R/B 3.5 20:50:10 36° NE 20:50:10 36° NE 20:52:59 10° N
Cosmos 1805 4.3 20:45:52 10° SSW 20:49:38 46° W 20:53:27 10° N
Cosmos 1420 Rocket 4.2 20:45:52 10° N 20:51:00 48° ENE 20:52:00 43° ESE
FENGYUN 3A 3.6 20:47:46 23° SSE 20:51:04 62° ENE 20:56:23 10° N
Resurs 1-3 3.6 20:48:38 12° S 20:52:45 82° WSW 20:57:09 10° NNW
Resurs 01 Rocket 2.1 20:49:15 10° S 20:53:38 59° W 20:58:02 10° NNW
Abrixas 4.2 20:57:14 10° W 20:59:52 28° NNW 21:00:02 28° NNW
ASTEX 1 3.2 20:55:39 10° N 21:00:34 83° E 21:05:27 10° S
Spot 2 Rocket 4.3 20:57:22 10° S 21:02:15 51° W 21:07:10 10° NNW
CENTAUR R/B 2.3 20:57:06 10° SSW 21:02:56 73° ESE 21:09:28 10° NE
Cosmos 1269 Rocket 4.4 20:58:22 10° SSW 21:03:35 64° WNW 21:08:50 10° N
Helios 1A 3.9 21:00:28 10° S 21:04:30 47° W 21:08:35 10° NNW
Cosmos 1048 Rocket 4.2 21:00:09 10° SSW 21:05:27 74° WNW 21:10:44 10° NNE
Delta 168 4.4 21:02:09 10° WSW 21:07:03 43° S 21:08:13 39° SSE
Cosmos 1743 Rocket 3.6 21:04:13 10° N 21:08:39 80° W 21:09:33 56° S
Cosmos 1943 3.0 21:05:48 10° SSW 21:11:24 76° ESE 21:17:02 10° NNE
Cosmos 1470 4.1 21:13:50 31° N 21:13:50 31° N 21:15:58 10° N
Cosmos 2369 Rocket 3.2 21:10:30 10° N 21:14:17 32° NNE 21:14:17 32° NNE
Cosmos 1943 Rocket 4.3 21:15:52 10° NNE 21:16:39 12° NNE 21:16:39 12° NNE
Cosmos 1174 4.3 21:15:25 10° SSW 21:20:08 69° SW 21:20:08 69° SW
GPS 2-04 Rocket1 4.1 21:17:35 10° W 21:19:40 33° W 21:19:40 33° W
Nadezhda 4 Rocket 4.3 21:17:19 10° NNW 21:23:29 64° W 21:29:35 10° S
Cosmos 1092 Rocket 4.0 21:24:20 10° N 21:30:32 79° W 21:32:27 47° S
Cosmos 2142 Rocket 4.4 21:24:25 10° S 21:30:46 88° W 21:37:12 10° N
ISS -0.3 21:32:13 10° W 21:33:16 16° WNW 21:33:16 16° WNW
Cosmos 1634 Rocket 4.2 21:34:12 10° SSW 21:40:25 68° W 21:46:37 10° N
OAO 3 Rocket 4.3 21:37:22 10° WNW 21:40:37 43° WNW 21:40:37 43° WNW
ALOS 3.9 21:42:33 26° SW 21:44:00 31° W 21:48:09 10° NW
SeaSat 1 3.9 21:52:46 10° N 21:57:12 34° WNW 22:01:36 10° WSW
Atlas Centaur 2 4.2 21:59:17 10° W 22:05:55 27° SSW 22:06:05 27° SSW
